{"data":{"norad_id":63113,"intl_designator":"2025-039K","name":"STARLINK-11598 [DTC]","alt_names":[],"object_type":"PAYLOAD","status":"ACTIVE","operator":null,"country":"US","launch_date":"2025-02-27","launch_site_code":"AFETR","launch_vehicle":null,"mission":null,"orbit_class":"UNKNOWN","rcs_meters":null,"size_class":null,"mass_kg":null,"dimensions":null,"purposes":["comms"],"wikipedia_slug":null,"has_3d_model":false,"image_url":null,"decayed_at":null,"tle_current":{"epoch":"2026-09-21T00:14:49.336800Z","epoch_age_seconds":118161,"freshness":"FRESH","line1":"1 63113U 25039K   26264.01029325  .00131819  00000+0  10132-2 0  9996","line2":"2 63113  43.0010 139.5758 0002206 266.4902  93.5713 15.70872274 90337","mean_motion":15.70872274,"eccentricity":0.0002206,"inclination_deg":43.001,"raan_deg":139.5758,"arg_perigee_deg":266.4902,"mean_anomaly_deg":93.5713,"bstar":0.0010132,"rev_number":9033,"period_min":91.668815080251,"perigee_km":354.91717853186,"apogee_km":357.88845749957,"semimajor_km":6734.5398180157,"source":"CELESTRAK","updated_at":"2026-09-22T09:00:49.764231Z"}}}